Weather History for KTAN - March, 2013

Change the Weather History Date:

Saturday, March 9, 2013

  Actual Average Record
Temperature  
Mean Temperature 34 °F -  
Max Temperature 43 °F 43 °F 66 °F (2002)
Min Temperature 26 °F 22 °F -2 °F (1984)
Degree Days  
Heating Degree Days 30    
Moisture  
Dew Point 25 °F    
Average Humidity 67    
Maximum Humidity 88    
Minimum Humidity 51    
Precipitation  
Precipitation 0.00 in - - ()
Sea Level Pressure  
Sea Level Pressure 30.24 in    
Wind  
Wind Speed 9 mph (North)    
Max Wind Speed 17 mph    
Max Gust Speed 25 mph    
Visibility 8 miles    
Events      
Averages and records for this station are not official NWS values.
T = Trace of Precipitation, MM = Missing Value Source: NWS Daily Summary

Daily Weather History Graph

Daily Weather History Graph

Search for Another Location

Airport or City:

Trip Planner

Search our weather history database for the weather conditions in past years. The results will help you decide how hot, cold, wet, or windy it might be!

Date:

Astronomy

Mar. 09, 2013 Rise Set
Actual Time 6:05 AM EST 5:44 PM EST
Civil Twilight 5:37 AM EST 6:11 PM EST
Nautical Twilight 5:05 AM EST 6:44 PM EST
Astronomical Twilight 4:33 AM EST 7:16 PM EST
Moon 4:29 AM EST (3/9) 3:41 PM EST (3/9)
Length of Visible Light 12h 33m
Length of Day
11h 38m
Waning Crescent, 5% of the Moon is Illuminated
Mar 9
Waning Crescent
Mar 11
New
Mar 19
First Quarter
Mar 27
Full
Apr 3
Last Quarter

Hourly Weather History & Observations

Time (EST) Temp. Windchill Dew Point Humidity Pressure Visibility Wind Dir Wind Speed Gust Speed Precip Events Conditions
12:52 AM 39.0 °F 30.3 °F 24.1 °F 55% 30.11 in 10.0 mi North 16.1 mph 25.3 mph N/A   Clear
1:52 AM 37.9 °F 30.0 °F 24.1 °F 57% 30.11 in 10.0 mi North 12.7 mph 20.7 mph N/A   Clear
2:52 AM 37.0 °F 31.0 °F 24.1 °F 59% 30.10 in 10.0 mi North 8.1 mph - N/A   Clear
3:52 AM 37.0 °F 31.0 °F 24.1 °F 59% 30.11 in 10.0 mi North 8.1 mph 18.4 mph N/A   Clear
4:52 AM 36.0 °F 29.0 °F 24.1 °F 62% 30.13 in 10.0 mi North 9.2 mph 18.4 mph N/A   Clear
5:52 AM 35.1 °F 27.9 °F 24.1 °F 64% 30.16 in 10.0 mi North 9.2 mph - N/A   Clear
6:52 AM 36.0 °F 29.6 °F 25.0 °F 64% 30.18 in 10.0 mi NNE 8.1 mph - N/A   Clear
7:52 AM 37.9 °F 29.2 °F 26.1 °F 62% 30.20 in 10.0 mi North 15.0 mph 23.0 mph N/A   Clear
8:52 AM 39.0 °F 29.9 °F 26.1 °F 60% 30.20 in 10.0 mi NNE 17.3 mph 25.3 mph N/A   Clear
9:52 AM 39.9 °F 31.8 °F 27.0 °F 60% 30.22 in 10.0 mi North 15.0 mph 23.0 mph N/A   Clear
10:52 AM 41.0 °F 33.1 °F 26.1 °F 55% 30.22 in 10.0 mi North 15.0 mph 23.0 mph N/A   Clear
11:52 AM 42.1 °F 37.1 °F 27.0 °F 55% 30.23 in 10.0 mi North 8.1 mph 19.6 mph N/A   Clear
12:52 PM 42.1 °F 34.9 °F 26.1 °F 53% 30.24 in 10.0 mi North 13.8 mph 19.6 mph N/A   Clear
1:52 PM 42.1 °F 37.1 °F 26.1 °F 53% 30.23 in 10.0 mi North 8.1 mph 17.3 mph N/A   Clear
2:52 PM 43.0 °F 37.7 °F 26.1 °F 51% 30.24 in 10.0 mi NNE 9.2 mph 16.1 mph N/A   Clear
3:52 PM 41.0 °F 35.2 °F 26.1 °F 55% 30.24 in 10.0 mi NNE 9.2 mph 18.4 mph N/A   Clear
4:52 PM 39.9 °F 35.1 °F 27.0 °F 60% 30.27 in 10.0 mi Variable 6.9 mph - N/A   Clear
5:52 PM 37.0 °F 34.5 °F 27.0 °F 67% 30.29 in 10.0 mi NE 3.5 mph - N/A   Clear
6:52 PM 35.1 °F 31.0 °F 27.0 °F 72% 30.30 in 10.0 mi NE 4.6 mph - N/A   Clear
7:52 PM 28.9 °F - 25.0 °F 85% 30.31 in 9.0 mi Calm Calm - N/A   Clear
8:52 PM 28.9 °F 25.2 °F 24.1 °F 82% 30.32 in 6.0 mi West 3.5 mph - N/A   Haze
9:52 PM 28.0 °F 24.2 °F 25.0 °F 88% 30.33 in 8.0 mi WNW 3.5 mph - N/A   Clear
10:52 PM 28.0 °F - 23.0 °F 81% 30.32 in 6.0 mi Calm Calm - N/A   Haze
11:21 PM 27.0 °F - 21.9 °F 81% 30.32 in 1.8 mi Calm Calm - N/A   Haze
11:28 PM 26.1 °F - 21.9 °F 84% 30.32 in 0.8 mi Calm Calm - N/A   Clear
11:35 PM 26.1 °F - 21.0 °F 81% 30.32 in 1.5 mi Calm Calm - N/A   Haze
11:41 PM 26.1 °F - 21.0 °F 81% 30.32 in 3.0 mi Calm Calm - N/A   Haze
11:52 PM 26.1 °F - 19.9 °F 78% 30.33 in 2.0 mi Calm Calm - N/A   Haze
11:56 PM 26.1 °F - 21.0 °F 81% 30.32 in 1.2 mi Calm Calm - N/A   Haze